User: anonymous
Location: Caltech
(34.1382°N, 118.1253°W)
Time: 17:20:52
(UTC-07:00)
Language:

NOAA 19 - Orbit

View from above orbital plane
View from above orbital plane
View from above satellite
View from above satellite

Ground track
Ground track

The orbit data is extracted from the following two-line orbital elements,

1 33591U 09005A   14274.52526618  .00000129  00000-0  95062-4 0  4104
2 33591 098.9547 219.2912 0014143 175.3403 315.1173 14.11772815290994
Epoch (UTC): 01 October 2014 12:36:22
Eccentricity: 0.0014143
inclination: 98.9547°
perigee height: 843 km
apogee height: 863 km
right ascension of ascending node: 219.2912°
argument of perigee: 175.3403°
revolutions per day: 14.11772815
mean anomaly at epoch: 315.1173°
orbit number at epoch: 29099

The dashed part of the orbit path shows where the satellite is in the earth's shadow,  

DLR